This demonstration page uses our WeatherBlox Daily Observations layout. Learn more.

Left ArrowRight Arrow

39.29038, -76.61219

Hourly Observations for March 6, 2015

Temp ( °F °C ) Dew Point ( °F °C ) Humidity (%) Winds ( mph kmh ) Pressure ( in mb ) Visibility ( mi km ) Precip ( " mm )
12:54 am 00:54 undefined 21 -6.1 6 -14.4 52 52 undefined N/A 30.38 1029 N/A 0.00 0.00
1:54 am 01:54 undefined 19 -7.2 5 -15 54 54 undefined N/A 30.50 1033 N/A 0.00 0.00
2:54 am 02:54 undefined 18 -7.8 4 -15.6 54 54 undefined N/A 30.50 1033 N/A 0.00 0.00
3:54 am 03:54 undefined 17 -8.3 3 -16.1 54 54 undefined N/A 30.50 1033 N/A 0.00 0.00
4:54 am 04:54 undefined 16 -8.9 2 -16.7 54 54 undefined N/A 30.52 1034 N/A 0.00 0.00
5:54 am 05:54 undefined 15 -9.4 1 -17.2 53 53 undefined N/A 30.56 1035 N/A 0.00 0.00
6:54 am 06:54 undefined 14 -10 2 -16.7 58 58 undefined N/A 30.58 1035 N/A 0.00 0.00
7:54 am 07:54 undefined 15 -9.4 2 -16.7 56 56 undefined N/A 30.63 1037 N/A 0.00 0.00
8:54 am 08:54 undefined 17 -8.3 1 -17.2 49 49 undefined N/A 30.57 1035 N/A 0.00 0.00
9:54 am 09:54 undefined 18 -7.8 3 -16.1 52 52 undefined N/A 30.60 1036 N/A 0.00 0.00
10:54 am 10:54 undefined 19 -7.2 4 -15.6 51 51 undefined N/A 30.59 1036 N/A 0.00 0.00
11:54 am 11:54 undefined 22 -5.6 4 -15.6 46 46 undefined N/A 30.60 1036 N/A 0.00 0.00
12:54 pm 12:54 undefined 23 -5 5 -15 46 46 undefined N/A 30.58 1036 N/A 0.00 0.00
1:54 pm 13:54 undefined 25 -3.9 4 -15.6 40 40 undefined N/A 30.53 1034 N/A 0.00 0.00
2:54 pm 14:54 undefined 26 -3.3 6 -14.4 42 42 undefined N/A 30.49 1033 N/A 0.00 0.00
3:54 pm 15:54 undefined 27 -2.8 7 -13.9 43 43 undefined N/A 30.45 1031 N/A 0.00 0.00
4:54 pm 16:54 undefined 27 -2.8 5 -15 39 39 undefined N/A 30.43 1030 N/A 0.00 0.00
5:54 pm 17:54 undefined 26 -3.3 6 -14.4 42 42 undefined N/A 30.44 1031 N/A 0.00 0.00
6:54 pm 18:54 undefined 25 -3.9 5 -15 42 42 undefined N/A 30.45 1031 N/A 0.00 0.00
7:54 pm 19:54 undefined 23 -5 13 -10.6 65 65 undefined N/A 30.48 1032 N/A 0.00 0.00
8:54 pm 20:54 undefined 21 -6.1 12 -11.1 68 68 undefined N/A 30.39 1029 N/A 0.00 0.00
9:54 pm 21:54 undefined 20 -6.7 12 -11.1 71 71 undefined N/A 30.50 1033 N/A 0.00 0.00
10:54 pm 22:54 undefined 20 -6.7 11 -11.7 68 68 undefined N/A 30.38 1029 N/A 0.00 0.00
11:54 pm 23:54 undefined 19 -7.2 11 -11.7 71 71 undefined N/A 30.45 1031 N/A 0.00 0.00

Powered by AerisWeather